CW4198 Weather Reports


time (UTC)temp
C
wind
direction
speed
KPH
gust
KPH
rain 1hr
cm
rain 24hr
cm
rain mn
cm
humidity
%
barometer
mb
20180219041635 8 92 0.0 0.0 0.00 0.00 0.00 47 1017.8
20180219040635 8 114 0.0 0.0 0.00 0.00 0.00 47 1017.8
20180219034635 8 88 0.0 0.0 0.00 0.00 0.00 44 1017.8
20180219033635 9 82 0.0 0.0 0.00 0.00 0.00 44 1018.8
20180219032635 9 79 0.0 0.0 0.00 0.00 0.00 44 1018.8
20180219031635 9 63 0.0 0.0 0.00 0.00 0.00 44 1018.8
20180219030635 9 50 0.0 0.0 0.00 0.00 0.00 44 1018.8
20180219025635 9 72 4.8 8.0 0.00 0.00 0.00 44 1018.8
20180219024635 9 79 0.0 0.0 0.00 0.00 0.00 43 1018.8
20180219023635 9 81 0.0 0.0 0.00 0.00 0.00 43 1018.8
20180219021635 9 76 0.0 0.0 0.00 0.00 0.00 42 1018.8
20180219015635 9 64 0.0 0.0 0.00 0.00 0.00 42 1018.8
20180219013634 9 99 4.8 8.0 0.00 0.00 0.00 41 1018.8
20180219012634 9 79 6.4 6.4 0.00 0.00 0.00 41 1018.8
20180219005634 9 70 4.8 4.8 0.00 0.00 0.00 41 1018.8
20180219001634 8 115 0.0 0.0 0.00 0.00 0.00 41 1019.8
20180218235635 9 71 0.0 0.0 0.00 0.00 0.00 41 1019.8
20180218233651 9 24 0.0 0.0 0.00 0.00 0.00 40 1019.8
20180218232651 9 51 0.0 0.0 0.00 0.00 0.00 39 1019.8
20180218231651 9 51 0.0 0.0 0.00 0.00 0.00 39 1019.8
20180218230651 10 51 0.0 0.0 0.00 0.00 0.00 38 1019.8
20180218223651 10 50 0.0 3.2 0.00 0.00 0.00 38 1019.8
20180218222651 10 62 3.2 4.8 0.00 0.00 0.00 38 1019.8
20180218221651 10 67 4.8 4.8 0.00 0.00 0.00 38 1019.8
20180218214031 10 60 4.8 4.8 0.00 0.00 0.00 34 1019.8
20180218210650 10 78 0.0 0.0 0.00 0.00 0.00 30 1019.8
20180218204650 10 73 4.8 8.0 0.00 0.00 0.00 28 1019.8
20180218203650 10 106 4.8 8.0 0.00 0.00 0.00 28 1019.8
20180218201650 11 87 0.0 0.0 0.00 0.00 0.00 27 1019.8
20180218200650 11 87 0.0 0.0 0.00 0.00 0.00 27 1019.8
20180218195650 11 87 0.0 4.8 0.00 0.00 0.00 27 1019.8
20180218194650 11 86 3.2 4.8 0.00 0.00 0.00 27 1019.8
20180218191650 11 101 0.0 0.0 0.00 0.00 0.00 27 1019.8
20180218190650 11 101 0.0 0.0 0.00 0.00 0.00 26 1019.8
20180218184650 12 103 0.0 0.0 0.00 0.00 0.00 26 1018.8
20180218183650 12 103 0.0 0.0 0.00 0.00 0.00 25 1018.8
20180218180650 13 98 4.8 8.0 0.00 0.00 0.00 25 1018.8
20180218175650 13 104 0.0 0.0 0.00 0.00 0.00 25 1018.8
20180218173632 14 84 4.8 8.0 0.00 0.00 0.00 24 1018.8
20180218172632 14 96 4.8 11.3 0.00 0.00 0.00 22 1018.8
20180218160632 15 113 12.9 17.7 0.00 0.00 0.00 22 1018.8
20180218154707 15 75 11.3 17.7 0.00 0.00 0.00 22 1019.8
20180218145631 15 99 8.0 19.3 0.00 0.00 0.00 24 1019.8
20180218143631 15 74 8.0 17.7 0.00 0.00 0.00 24 1019.8
20180218142631 15 78 9.7 17.7 0.00 0.00 0.00 25 1019.8
20180218141631 15 87 8.0 14.5 0.00 0.00 0.00 25 1019.8
20180218135631 14 78 14.5 17.7 0.00 0.00 0.00 25 1019.8
20180218132631 13 102 17.7 17.7 0.00 0.00 0.00 26 1020.8
20180218131631 13 71 12.9 16.1 0.00 0.00 0.00 26 1020.8
20180218130631 13 75 12.9 17.7 0.00 0.00 0.00 27 1020.8
20180218124631 13 105 12.9 17.7 0.00 0.00 0.00 28 1020.8
20180218123631 13 52 8.0 20.9 0.00 0.00 0.00 28 1021.8
20180218122631 12 95 25.7 25.7 0.00 0.00 0.00 28 1021.8
20180218120631 12 94 11.3 17.7 0.00 0.00 0.00 30 1021.8
20180218114631 12 99 14.5 24.1 0.00 0.00 0.00 30 1021.8
20180218110652 11 88 11.3 12.9 0.00 0.00 0.00 33 1021.8
20180218105652 11 92 11.3 17.7 0.00 0.00 0.00 33 1021.8
20180218102652 10 42 11.3 12.9 0.00 0.00 0.00 37 1021.8
20180218101652 10 76 11.3 17.7 0.00 0.00 0.00 37 1021.8
20180218095652 9 72 4.8 16.1 0.00 0.00 0.00 39 1022.8
20180218094652 8 73 11.3 16.1 0.00 0.00 0.00 40 1022.8
20180218093652 8 90 8.0 12.9 0.00 0.00 0.00 45 1021.8
20180218092651 7 43 8.0 8.0 0.00 0.00 0.00 45 1021.8
20180218091651 7 50 3.2 8.0 0.00 0.00 0.00 45 1021.8
20180218085651 6 74 8.0 8.0 0.00 0.00 0.00 45 1021.8
20180218083651 6 50 4.8 11.3 0.00 0.00 0.00 48 1021.8
20180218082651 6 70 8.0 8.0 0.00 0.00 0.00 49 1021.8
20180218080651 5 98 4.8 8.0 0.00 0.00 0.00 53 1021.8
20180218072651 5 85 4.8 8.0 0.00 0.00 0.00 55 1021.8
20180218071651 5 113 4.8 8.0 0.00 0.00 0.00 54 1021.8
20180218070651 5 104 8.0 8.0 0.00 0.00 0.00 53 1021.8
20180218062640 6 83 6.4 11.3 0.00 0.00 0.00 51 1021.8
20180218060640 6 78 4.8 8.0 0.00 0.00 0.00 54 1021.8
20180218053639 5 90 8.0 8.0 0.00 0.00 0.00 60 1021.8
20180218045654 6 85 3.2 6.4 0.00 0.00 0.00 58 1021.8
20180218044654 6 56 4.8 4.8 0.00 0.00 0.00 56 1021.8
20180218043654 6 58 4.8 4.8 0.00 0.00 0.00 56 1021.8
20180218042654 6 65 3.2 8.0 0.00 0.00 0.00 55 1021.8